Weather History for Harvey, ND

Change the Weather History Date:

Friday, March 8, 2013

  Actual Average (KRUG) Record (KRUG)
Temperature  
Mean Temperature 18 °F -  
Max Temperature 26 °F 31 °F 60 °F (1977)
Min Temperature 10 °F 10 °F -16 °F (1984)
Degree Days  
Heating Degree Days 47    
Moisture  
Dew Point 16 °F    
Average Humidity 87    
Maximum Humidity 100    
Minimum Humidity 68    
Precipitation  
Precipitation 0.00 in - - ()
Sea Level Pressure  
Sea Level Pressure 30.13 in    
Wind  
Wind Speed 8 mph (WNW)    
Max Wind Speed 13 mph    
Max Gust Speed -    
Visibility 8 miles    
Events      
Averages and records for this station are not official NWS values.
T = Trace of Precipitation, MM = Missing Value Source: NWS Daily Summary

Daily Weather History Graph

Daily Weather History Graph

Search for Another Location

Airport:

Trip Planner

Search our weather history database for the weather conditions in past years. The results will help you decide how hot, cold, wet, or windy it might be!

Date:

Astronomy

Mar. 08, 2013 Rise Set
Actual Time 7:06 AM CST 6:35 PM CST
Civil Twilight 6:35 AM CST 7:06 PM CST
Nautical Twilight 5:59 AM CST 7:42 PM CST
Astronomical Twilight 5:23 AM CST 8:18 PM CST
Moon 5:03 AM CST (3/8) 3:21 PM CST (3/8)
Length of Visible Light 12h 30m
Length of Day
11h 29m
Waning Crescent, 11% of the Moon is Illuminated
Mar 8
Waning Crescent
Mar 11
New
Mar 19
First Quarter
Mar 27
Full
Apr 2
Last Quarter

Hourly Weather History & Observations

Time (CST) Temp. Windchill Dew Point Humidity Pressure Visibility Wind Dir Wind Speed Gust Speed Precip Events Conditions
12:15 AM 26.6 °F 17.5 °F 24.8 °F 93% 30.13 in 7.0 mi WSW 9.2 mph - N/A   Overcast
12:35 AM 26.6 °F 17.5 °F 24.8 °F 93% 30.13 in 7.0 mi WSW 9.2 mph - N/A   Overcast
12:55 AM 24.8 °F 15.3 °F 24.8 °F 100% 30.13 in 7.0 mi WSW 9.2 mph - N/A   Overcast
1:15 AM 24.8 °F 14.6 °F 23.0 °F 93% 30.14 in 7.0 mi WSW 10.4 mph - N/A   Overcast
1:35 AM 23.0 °F 12.4 °F 21.2 °F 93% 30.14 in 8.0 mi WSW 10.4 mph - N/A   Scattered Clouds
1:55 AM 21.2 °F 10.9 °F 19.4 °F 93% 30.14 in 7.0 mi West 9.2 mph - N/A   Clear
2:15 AM 19.4 °F 7.9 °F 17.6 °F 93% 30.14 in 7.0 mi West 10.4 mph - N/A   Clear
2:35 AM 19.4 °F 8.6 °F 17.6 °F 93% 30.14 in 7.0 mi West 9.2 mph - N/A   Clear
2:55 AM 15.8 °F 5.1 °F 15.8 °F 100% 30.14 in 6.0 mi West 8.1 mph - N/A   Clear
3:15 AM 15.8 °F 5.1 °F 15.8 °F 100% 30.14 in 6.0 mi WSW 8.1 mph - N/A   Clear
3:35 AM 12.2 °F -0.2 °F 10.4 °F 92% 30.14 in 5.0 mi WSW 9.2 mph - N/A   Clear
3:55 AM 10.4 °F -1.5 °F 10.4 °F 100% 30.14 in 5.0 mi WSW 8.1 mph - N/A   Clear
4:15 AM 10.4 °F -1.5 °F 8.6 °F 92% 30.14 in 5.0 mi WSW 8.1 mph - N/A   Mostly Cloudy
4:35 AM 12.2 °F 0.7 °F 10.4 °F 92% 30.14 in 6.0 mi SW 8.1 mph - N/A   Scattered Clouds
4:55 AM 12.2 °F 1.7 °F 10.4 °F 92% 30.13 in 5.0 mi SW 6.9 mph - N/A   Mostly Cloudy
5:15 AM 15.8 °F 5.1 °F 15.8 °F 100% 30.13 in 7.0 mi SW 8.1 mph - N/A   Overcast
5:35 AM 17.6 °F 6.4 °F 17.6 °F 100% 30.13 in 7.0 mi WSW 9.2 mph - N/A   Overcast
5:55 AM 19.4 °F 8.6 °F 17.6 °F 93% 30.14 in 7.0 mi SW 9.2 mph - N/A   Overcast
6:15 AM 19.4 °F 8.6 °F 17.6 °F 93% 30.14 in 8.0 mi WSW 9.2 mph - N/A   Overcast
6:35 AM 19.4 °F 9.5 °F 17.6 °F 93% 30.14 in 9.0 mi West 8.1 mph - N/A   Overcast
6:55 AM 19.4 °F 9.5 °F 17.6 °F 93% 30.14 in 9.0 mi West 8.1 mph - N/A   Overcast
7:15 AM 19.4 °F 11.5 °F 19.4 °F 100% 30.15 in 8.0 mi West 5.8 mph - N/A   Overcast
7:35 AM 21.2 °F 10.9 °F 19.4 °F 93% 30.15 in 9.0 mi WNW 9.2 mph - N/A   Overcast
7:55 AM 19.4 °F 6.6 °F 17.6 °F 93% 30.15 in 9.0 mi NW 12.7 mph - N/A   Overcast
8:15 AM 19.4 °F 6.6 °F 17.6 °F 93% 30.15 in 9.0 mi NW 12.7 mph - N/A   Overcast
8:35 AM 19.4 °F 6.6 °F 17.6 °F 93% 30.15 in 7.0 mi NNW 12.7 mph - N/A   Mostly Cloudy
8:55 AM 17.6 °F 5.7 °F 15.8 °F 93% 30.16 in 6.0 mi NW 10.4 mph - N/A   Partly Cloudy
9:15 AM 17.6 °F 7.3 °F 15.8 °F 93% 30.17 in 6.0 mi NW 8.1 mph - N/A   Clear
9:35 AM 17.6 °F 7.3 °F 14.0 °F 86% 30.18 in 6.0 mi NW 8.1 mph - N/A   Clear
9:55 AM 17.6 °F 9.3 °F 14.0 °F 86% 30.17 in 7.0 mi NW 5.8 mph - N/A   Clear
10:15 AM 17.6 °F 8.2 °F 14.0 °F 86% 30.17 in 7.0 mi WNW 6.9 mph - N/A   Partly Cloudy
10:35 AM 17.6 °F 8.2 °F 14.0 °F 86% 30.17 in 7.0 mi WNW 6.9 mph - N/A   Clear
10:55 AM 17.6 °F 8.2 °F 14.0 °F 86% 30.18 in 8.0 mi West 6.9 mph - N/A   Clear
11:15 AM 17.6 °F 7.3 °F 14.0 °F 86% 30.18 in 8.0 mi NW 8.1 mph - N/A   Clear
11:35 AM 19.4 °F 9.5 °F 14.0 °F 80% 30.18 in 7.0 mi WNW 8.1 mph - N/A   Clear
11:55 AM 19.4 °F 10.4 °F 14.0 °F 80% 30.18 in 8.0 mi WNW 6.9 mph - N/A   Clear
12:15 PM 19.4 °F 9.5 °F 14.0 °F 80% 30.18 in 8.0 mi WNW 8.1 mph - N/A   Clear
12:35 PM 19.4 °F 12.8 °F 14.0 °F 80% 30.19 in 8.0 mi West 4.6 mph - N/A   Clear
12:55 PM 19.4 °F 11.5 °F 14.0 °F 80% 30.18 in 8.0 mi WSW 5.8 mph - N/A   Clear
1:15 PM 19.4 °F 9.5 °F 14.0 °F 80% 30.18 in 8.0 mi WSW 8.1 mph - N/A   Partly Cloudy
1:35 PM 19.4 °F 10.4 °F 14.0 °F 80% 30.18 in 9.0 mi WSW 6.9 mph - N/A   Scattered Clouds
1:55 PM 21.2 °F 12.6 °F 14.0 °F 74% 30.17 in 9.0 mi West 6.9 mph - N/A   Partly Cloudy
2:15 PM 21.2 °F 12.6 °F 14.0 °F 74% 30.17 in 9.0 mi West 6.9 mph - N/A   Scattered Clouds
2:35 PM 23.0 °F 17.0 °F 14.0 °F 68% 30.16 in 9.0 mi West 4.6 mph - N/A   Partly Cloudy
2:55 PM 23.0 °F 15.8 °F 15.8 °F 74% 30.16 in 9.0 mi West 5.8 mph - N/A   Clear
3:15 PM 21.2 °F 14.9 °F 14.0 °F 74% 30.14 in 9.0 mi West 4.6 mph - N/A   Clear
3:35 PM 21.2 °F 14.9 °F 14.0 °F 74% 30.13 in 10.0 mi NW 4.6 mph - N/A   Clear
3:55 PM 21.2 °F 13.6 °F 14.0 °F 74% 30.13 in 10.0 mi NNW 5.8 mph - N/A   Clear
4:15 PM 21.2 °F 14.9 °F 14.0 °F 74% 30.12 in 10.0 mi NNW 4.6 mph - N/A   Clear
4:35 PM 21.2 °F 13.6 °F 14.0 °F 74% 30.11 in 9.0 mi North 5.8 mph - N/A   Mostly Cloudy
4:55 PM 21.2 °F 11.7 °F 15.8 °F 80% 30.11 in 9.0 mi North 8.1 mph - N/A   Partly Cloudy
5:15 PM 19.4 °F 8.6 °F 15.8 °F 86% 30.10 in 9.0 mi North 9.2 mph - N/A   Scattered Clouds
5:35 PM 19.4 °F 9.5 °F 15.8 °F 86% 30.09 in 9.0 mi NNE 8.1 mph - N/A   Partly Cloudy
5:55 PM 19.4 °F 10.4 °F 15.8 °F 86% 30.09 in 9.0 mi NNE 6.9 mph - N/A   Clear
6:15 PM 19.4 °F 7.9 °F 15.8 °F 86% 30.07 in 10.0 mi NNE 10.4 mph - N/A   Clear
6:35 PM 19.4 °F 11.5 °F 15.8 °F 86% 30.07 in 9.0 mi NE 5.8 mph - N/A   Clear
6:55 PM 19.4 °F 12.8 °F 15.8 °F 86% 30.08 in 9.0 mi ENE 4.6 mph - N/A   Clear
7:15 PM 19.4 °F 12.8 °F 15.8 °F 86% 30.07 in 10.0 mi ENE 4.6 mph - N/A   Clear
7:35 PM 19.4 °F 11.5 °F 15.8 °F 86% 30.07 in 10.0 mi East 5.8 mph - N/A   Partly Cloudy
7:55 PM 19.4 °F 11.5 °F 15.8 °F 86% 30.07 in 10.0 mi East 5.8 mph - N/A   Scattered Clouds
8:15 PM 19.4 °F 12.8 °F 15.8 °F 86% 30.07 in 10.0 mi ESE 4.6 mph - N/A   Partly Cloudy
8:35 PM 19.4 °F 12.8 °F 15.8 °F 86% 30.07 in 10.0 mi East 4.6 mph - N/A   Clear
8:55 PM 19.4 °F 12.8 °F 15.8 °F 86% 30.07 in 10.0 mi ENE 4.6 mph - N/A   Mostly Cloudy
9:15 PM 19.4 °F 14.3 °F 15.8 °F 86% 30.09 in 10.0 mi ENE 3.5 mph - N/A   Scattered Clouds
9:35 PM 19.4 °F - 15.8 °F 86% 30.08 in 10.0 mi Calm Calm - N/A   Clear
9:55 PM 19.4 °F - 15.8 °F 86% 30.08 in 9.0 mi Calm Calm - N/A   Clear
10:15 PM 17.6 °F 12.3 °F 15.8 °F 93% 30.07 in 8.0 mi ENE 3.5 mph - N/A   Clear
10:35 PM 19.4 °F - 15.8 °F 86% 30.07 in 9.0 mi Calm Calm - N/A   Clear
10:55 PM 17.6 °F 12.3 °F 15.8 °F 93% 30.06 in 8.0 mi East 3.5 mph - N/A   Clear
11:15 PM 19.4 °F 14.3 °F 15.8 °F 86% 30.05 in 8.0 mi East 3.5 mph - N/A   Partly Cloudy
11:35 PM 19.4 °F 12.8 °F 17.6 °F 93% 30.03 in 7.0 mi East 4.6 mph - N/A   Mostly Cloudy
11:55 PM 19.4 °F 11.5 °F 17.6 °F 93% 30.02 in 8.0 mi East 5.8 mph - N/A   Overcast